Tracking 31027 objects as of 19-Jul-2025
HD Live streaming from Space Station
objects crossing your sky now

USA 40 R/B DEB

Track USA 40 R/B DEB now!
10-day predictions


NORAD ID: 23362
Int'l Code: 1989-061AJ
Perigee: 574.7 km
Apogee: 5,532.8 km
Inclination: 56.9 °
Period: 151.8 minutes
Semi major axis: 9424 km
RCS: Unknown
Launch date: August 8, 1989
Source: United States (US)
Launch site: AIR FORCE EASTERN TEST RANGE (AFETR)

Note: This is SATELLITE DEBRIS
Your satellite tracking list
Your tracking list is empty




NASA's NSSDC Master Catalog

Two Line Element Set (TLE):
1 23362U 89061AJ  25187.71253797  .00006331  00000-0  62911-2 0  9998
2 23362  56.9028 304.3955 2630364 231.3719 102.1198  9.48849212215251
Source of the keplerian elements: AFSPC